Theta_e
308 308 308 308 308 307 307 306 306 306 305 305 305 304 304 305 304 305 305 305 305 304 305 305 304 304 302 303 301 301 300 299 300 300 300 299 299 300 300 300 300 300 302 301 301 301 301 300 300 301 302 301 302 302 303 303 304 304 305 305 304 305 305 305 303 304 307 313 315 314 318 321 320 323 322 323 324 324 320 323 322 322 322 323 323
309 309 309 309 309 309 308 307 306 305 305 304 305 304 304 304 304 304 305 304 305 305 304 304 303 302 302 300 299 299 299 299 299 300 300 299 299 300 300 299 299 299 299 299 300 300 300 299 300 301 301 301 301 301 301 302 302 302 303 303 303 304 306 303 302 302 301 306 310 315 316 320 318 322 322 321 322 323 322 323 322 321 322 323 322
311 310 310 308 308 308 307 307 307 305 304 304 304 304 304 304 305 304 304 303 304 304 303 303 301 301 300 299 299 299 299 298 299 299 298 298 298 298 299 298 298 298 298 298 298 299 299 300 300 300 301 301 301 301 302 301 302 301 302 303 303 303 304 304 302 300 301 302 307 308 313 316 316 317 320 321 321 321 320 321 321 320 319 319 319
311 310 309 309 310 310 308 308 306 306 305 305 304 304 304 304 305 304 304 303 303 302 302 301 300 300 300 299 298 298 298 299 298 298 299 298 298 298 297 297 297 298 298 298 298 298 299 299 300 300 301 300 300 300 301 301 301 301 302 302 303 302 303 303 304 301 301 301 303 306 308 309 313 315 317 320 319 319 320 320 318 318 319 318 317
311 311 310 310 310 310 308 307 307 306 305 305 304 304 304 304 304 303 302 302 302 301 301 301 300 299 299 298 298 297 298 298 298 297 297 298 298 297 297 297 297 297 297 298 299 299 299 299 300 300 301 300 301 300 301 301 300 301 300 301 301 302 302 303 303 303 302 300 301 303 305 306 309 311 316 316 317 318 317 316 317 317 317 316 315
310 311 310 310 309 309 308 306 306 306 306 305 304 304 304 304 304 303 303 302 301 301 300 300 301 299 298 297 297 297 297 297 296 297 296 297 297 297 297 297 298 297 297 298 298 299 299 298 298 299 299 298 298 299 300 300 300 300 300 300 301 301 301 302 303 302 301 300 300 300 303 303 305 307 312 315 315 315 316 317 314 313 314 316 316
309 310 310 310 309 308 308 307 307 307 306 305 305 304 304 304 303 303 303 302 301 300 300 300 300 298 297 297 297 297 296 296 296 295 295 295 295 296 296 296 296 296 297 297 297 297 297 297 298 298 297 298 297 297 298 298 299 299 299 299 299 299 299 299 300 299 299 299 299 300 300 303 304 304 309 312 313 314 313 314 314 313 311 313 315
308 309 309 309 309 308 308 307 307 306 306 305 304 304 304 303 303 303 302 301 301 300 299 299 298 298 297 297 297 297 296 295 294 294 295 295 296 296 295 296 296 295 295 296 296 296 296 297 297 297 297 298 298 298 298 298 298 297 298 298 298 297 297 297 297 297 297 297 297 298 299 300 302 305 307 307 308 310 313 312 310 312 314 311 311
306 308 309 308 308 308 307 306 306 305 305 305 304 304 303 303 303 302 302 302 301 300 299 298 297 296 296 296 296 296 296 295 295 295 296 295 294 295 294 294 294 294 294 294 295 295 296 296 297 297 299 300 298 298 298 298 298 296 297 297 297 296 296 296 296 296 296 296 296 298 297 298 299 300 301 302 303 305 311 311 310 312 310 310 311
303 306 308 309 309 308 307 307 306 305 305 304 304 304 304 303 302 302 301 300 299 298 297 297 297 296 295 295 296 296 295 295 299 295 296 297 295 294 294 294 294 294 294 294 294 294 295 295 297 298 298 298 297 296 295 295 296 298 297 297 296 296 295 294 294 294 294 294 294 295 295 296 297 299 299 302 304 306 306 308 307 308 308 309 310
302 304 307 309 309 307 306 306 305 305 304 304 304 304 303 303 302 301 300 299 297 298 297 296 295 295 295 295 294 294 294 296 295 293 293 293 294 294 293 293 293 293 293 292 292 293 294 294 295 296 297 297 297 295 294 294 294 294 294 295 296 296 295 294 293 294 293 293 294 294 295 295 297 300 300 300 303 304 304 306 306 307 306 306 306
301 303 306 307 307 307 305 305 304 304 304 304 303 303 302 301 300 299 298 297 297 296 295 295 294 295 294 293 293 294 294 296 293 292 292 292 293 295 293 292 292 292 292 292 292 292 292 293 294 295 295 296 296 296 295 294 293 293 293 292 292 293 293 295 294 293 293 292 292 293 294 294 296 298 299 301 300 302 303 304 304 305 306 306 307
300 302 305 306 307 306 305 304 304 303 304 304 303 303 302 301 300 299 298 297 296 295 295 294 294 293 293 293 293 294 293 294 292 292 292 291 291 292 292 291 291 291 291 291 291 291 291 292 292 293 294 295 296 296 296 296 295 294 293 293 293 292 291 290 292 295 295 293 292 292 293 294 294 296 300 300 302 300 301 301 302 303 305 305 306
299 301 303 305 306 305 305 304 303 303 304 304 303 301 301 300 299 298 297 296 296 295 294 294 293 292 292 292 292 292 291 293 292 292 291 291 290 291 291 290 290 290 291 291 291 291 291 291 290 291 292 293 293 293 294 294 294 294 294 294 295 295 293 292 291 291 293 295 294 292 295 296 295 297 300 301 299 298 299 299 302 302 303 303 308
299 301 302 304 304 304 304 304 303 303 303 302 301 300 299 297 297 297 296 295 295 294 293 292 292 293 292 291 291 290 291 292 291 291 290 290 290 290 290 290 290 290 290 290 290 290 290 291 290 290 291 291 292 293 293 293 293 293 293 293 293 294 294 294 294 295 295 295 295 295 295 296 297 298 299 301 301 301 301 301 303 304 304 304 303
299 300 301 302 303 304 304 303 302 302 302 301 300 299 298 297 297 297 296 295 294 294 293 293 293 291 291 290 290 288 289 291 290 290 290 290 290 291 290 289 289 289 289 290 290 290 290 290 290 290 290 290 291 290 291 292 292 292 292 292 292 293 293 294 294 294 295 295 296 295 296 296 295 297 297 296 298 300 301 301 301 301 299 299 299
298 299 301 302 303 304 304 303 302 302 302 301 300 299 298 297 296 296 294 293 293 293 292 293 293 291 290 289 288 287 287 290 290 290 290 289 290 289 289 289 288 288 288 289 289 290 290 290 290 290 290 290 291 289 290 291 291 291 291 291 291 292 292 294 293 292 292 292 292 292 292 292 292 292 292 292 294 295 295 294 294 296 296 295 297
298 299 300 302 303 303 303 303 302 302 302 301 300 298 297 296 296 296 295 293 293 292 292 291 290 291 290 288 288 287 287 288 290 290 290 289 290 289 289 288 287 287 288 288 289 289 289 291 292 291 290 290 290 289 289 290 289 289 289 289 289 290 291 292 293 293 292 292 292 291 291 291 291 291 292 292 292 294 294 292 295 296 294 295 295
298 299 301 302 303 303 304 304 303 302 301 299 298 297 297 296 296 296 295 294 293 292 292 290 289 289 289 289 292 288 286 288 290 289 290 289 291 290 288 287 286 287 287 287 288 288 288 290 291 291 291 290 289 288 288 289 288 288 288 287 287 287 289 291 291 291 292 292 292 293 293 293 294 295 295 293 293 294 296 296 296 295 294 295 296
298 300 301 302 302 303 304 304 303 303 300 298 298 298 297 296 295 295 294 294 292 291 291 290 289 289 289 289 290 290 287 287 290 289 290 290 290 291 289 287 286 286 287 287 287 288 288 289 290 289 288 288 288 288 288 288 288 288 288 287 286 286 289 290 290 291 291 291 292 293 293 294 294 294 296 296 297 298 297 297 297 296 295 295 296
298 299 300 301 302 303 304 304 303 302 300 299 298 297 297 296 295 294 292 291 290 289 290 288 288 288 288 288 288 288 288 287 288 289 289 290 290 290 288 287 287 287 286 287 287 287 287 288 289 289 288 288 288 288 288 288 289 289 288 287 287 288 289 289 289 290 290 290 290 290 290 291 291 292 293 294 295 298 298 297 298 298 297 296 296
298 299 300 301 303 304 303 304 303 302 301 299 298 298 297 296 296 295 293 291 290 289 289 288 287 287 287 287 287 286 287 291 288 289 289 289 289 289 289 288 289 288 287 287 287 287 287 288 288 289 288 288 288 288 288 288 288 289 288 288 288 288 288 289 288 288 288 288 288 289 289 289 290 291 292 293 294 295 297 299 300 300 301 300 299
298 299 300 302 303 303 303 302 300 300 298 298 297 296 296 296 294 293 291 290 289 288 287 287 287 287 287 286 286 286 286 287 289 289 289 289 289 288 288 288 288 289 287 286 286 287 288 288 289 289 288 288 288 288 288 288 288 288 287 287 287 287 288 288 288 287 287 287 287 287 287 288 289 290 291 292 294 296 296 297 299 300 301 303 304
298 299 300 302 303 302 301 300 299 298 298 297 296 294 293 292 292 291 290 289 288 286 285 286 286 286 287 287 287 286 286 285 286 288 288 288 288 288 288 287 288 288 288 287 288 288 288 288 288 288 287 287 287 287 287 287 287 287 287 287 287 287 288 288 287 287 287 286 286 286 286 288 289 289 290 292 294 296 298 299 299 300 301 302 303
298 299 301 302 301 300 300 299 299 299 298 297 294 292 290 291 289 288 288 288 287 287 285 286 286 287 286 286 286 286 286 285 284 286 286 287 288 287 287 287 287 287 287 288 289 288 288 288 287 287 287 287 287 287 287 287 287 287 287 287 288 288 287 287 287 287 286 285 286 286 287 288 289 290 292 293 294 296 296 297 298 299 300 300 301
298 300 301 301 299 299 298 298 298 297 296 295 294 292 292 291 289 287 288 288 287 287 285 285 285 285 285 285 285 285 286 285 284 284 286 287 287 287 287 287 288 288 288 288 288 288 287 287 287 287 287 287 287 287 287 287 287 287 287 288 288 288 287 287 287 286 286 286 286 286 287 288 289 291 292 293 293 292 294 294 295 295 296 296 296
299 300 299 299 299 299 298 298 297 296 295 293 292 292 292 290 289 288 287 287 286 285 286 286 286 285 285 285 285 285 284 284 284 284 285 285 285 286 287 287 288 288 288 288 288 287 287 287 287 287 287 287 287 287 287 287 287 288 288 288 288 288 288 288 287 287 287 287 287 287 288 289 291 290 290 291 291 292 294 293 294 294 295 296 296
300 299 298 298 298 297 297 292 294 293 291 291 290 289 290 290 288 287 286 286 286 285 285 285 285 286 284 284 284 284 284 284 284 285 285 286 286 287 287 287 287 287 286 287 287 287 287 287 286 287 287 286 287 287 287 288 287 287 288 288 288 288 289 289 289 288 288 288 288 288 288 289 289 289 290 290 291 292 294 293 293 294 294 295 294
299 298 297 296 295 295 295 294 293 291 290 290 289 289 289 288 287 287 286 286 287 286 285 284 285 284 284 285 284 284 284 285 286 287 287 287 287 287 286 286 287 286 287 287 287 286 286 286 285 285 285 285 285 285 286 286 286 287 287 288 288 288 288 288 287 287 287 287 287 287 287 288 288 289 289 289 290 292 294 293 294 294 294 295 293
298 296 296 295 294 294 293 292 292 291 290 289 288 287 286 288 289 289 286 287 287 287 287 285 284 283 284 285 285 284 284 286 287 287 287 287 287 287 287 287 287 286 286 286 286 285 284 284 284 284 284 284 284 284 285 285 285 285 286 287 287 287 287 287 287 287 287 287 287 287 286 287 287 288 289 289 290 291 293 292 293 293 292 292 292
295 295 294 293 293 292 291 291 291 290 290 289 289 288 288 286 287 287 288 288 287 287 288 288 288 287 287 283 285 286 287 287 287 287 287 287 287 287 286 286 286 286 286 285 284 284 283 283 283 284 284 284 284 284 285 285 285 285 285 286 286 286 286 287 287 287 287 287 287 287 287 287 286 287 287 288 289 290 292 292 293 293 292 292 292
294 294 293 291 290 290 291 291 290 289 288 288 288 288 288 288 288 287 287 288 288 288 287 287 287 287 287 287 287 286 286 287 287 287 287 287 287 286 286 286 286 286 286 286 284 283 284 283 283 283 284 284 284 284 284 284 285 285 285 285 285 286 286 286 287 288 287 287 286 286 286 287 287 287 287 288 289 290 291 290 291 291 291 293 293
293 293 292 291 291 290 291 290 290 290 288 287 287 287 287 286 287 287 285 286 286 286 286 286 286 286 287 287 287 287 287 287 287 287 287 287 286 286 286 286 286 286 286 285 284 283 284 283 283 284 284 283 284 284 284 285 285 285 285 285 285 286 287 288 288 288 287 287 287 287 287 287 287 287 287 288 288 289 289 290 290 291 291 291 291
294 293 292 292 292 291 290 290 289 288 287 287 287 287 287 287 286 285 285 284 284 285 285 285 286 286 287 287 287 287 287 287 287 287 287 286 286 286 286 285 286 286 285 284 284 283 283 283 283 284 284 284 284 284 284 284 285 285 285 285 285 286 287 288 288 287 287 287 287 287 287 287 287 287 287 288 288 289 289 290 290 290 290 291 291
293 290 288 289 291 290 290 289 288 286 286 286 286 286 285 284 283 283 282 281 281 281 282 281 283 285 284 285 286 286 286 287 286 287 286 286 286 286 286 284 283 284 285 285 284 284 283 283 283 284 284 284 284 284 284 284 284 284 284 285 285 286 286 286 287 287 287 287 287 287 287 287 287 288 288 288 288 288 289 289 290 290 290 290 290
292 291 290 290 289 289 289 288 287 287 286 286 285 284 283 282 282 282 280 281 280 280 279 279 278 282 285 285 286 286 286 286 286 286 286 286 286 286 283 282 283 283 283 284 284 284 284 284 284 284 284 284 284 284 284 284 284 284 285 285 285 285 285 286 286 287 287 288 287 287 287 288 288 288 288 288 288 288 289 289 289 289 289 290 289
291 290 289 289 289 289 288 287 287 286 285 284 283 283 282 281 281 281 280 280 278 279 279 279 281 282 283 282 284 285 286 286 286 286 286 286 286 285 284 283 283 283 283 283 284 284 283 284 284 284 284 284 284 284 284 284 284 285 285 285 285 285 285 286 286 286 287 287 288 288 287 288 288 288 288 288 288 289 289 289 289 289 289 288 288
290 290 289 289 288 288 287 286 286 284 284 283 282 282 282 282 282 280 280 278 278 277 279 281 281 277 279 280 284 283 283 284 285 286 286 286 285 284 284 284 284 283 283 284 284 284 283 284 284 284 284 284 284 284 284 284 284 284 285 285 285 285 286 286 286 286 286 287 287 288 288 288 289 289 289 289 289 289 289 289 289 289 288 288 288
289 287 286 286 286 288 287 285 284 284 283 282 282 281 280 280 280 280 280 278 278 277 278 279 279 280 281 280 282 283 283 282 282 283 284 285 285 285 284 284 284 284 284 284 284 284 284 284 284 284 284 284 284 284 284 284 284 284 285 285 285 285 285 285 285 286 286 286 287 288 288 289 289 289 289 289 289 289 289 288 288 288 288 288 288
288 287 286 285 286 286 285 284 283 283 282 283 282 281 280 279 280 280 279 279 279 278 277 279 280 282 282 280 281 283 281 280 280 283 284 284 284 284 284 284 284 284 283 284 284 284 284 284 284 284 284 284 284 284 284 284 284 284 284 285 285 285 285 285 285 285 286 286 287 287 288 289 289 289 289 290 289 289 288 288 288 288 288 288 287
287 286 285 284 284 285 284 284 283 282 281 281 281 281 280 279 280 278 278 279 279 279 279 280 283 283 282 282 285 284 282 279 279 282 284 284 284 284 284 284 284 284 284 284 284 284 284 284 284 284 284 284 284 284 284 284 284 284 284 284 285 285 285 285 285 285 286 286 286 287 288 288 289 289 289 289 288 289 288 288 288 288 288 287 286
287 286 286 285 285 284 284 283 282 283 282 282 282 281 280 280 280 279 279 278 279 278 278 279 281 281 282 283 283 283 282 281 281 282 284 285 285 285 285 285 285 285 285 284 284 284 284 284 284 284 284 284 284 284 284 284 284 284 284 284 284 284 284 285 285 285 285 286 286 286 287 288 288 288 288 288 288 288 288 288 288 288 287 287 286
286 285 285 285 284 284 283 283 283 283 282 282 282 281 282 281 281 280 280 279 279 278 278 278 279 280 280 280 281 281 281 281 280 282 283 284 284 285 285 285 285 286 285 285 285 285 285 284 284 284 284 284 284 284 284 284 284 284 284 284 284 284 284 285 285 285 285 286 286 286 286 287 288 288 288 288 288 288 288 288 287 287 287 286 286
286 285 285 284 284 283 283 283 283 282 282 282 282 282 282 282 282 282 281 280 280 279 279 279 279 279 280 280 281 281 281 281 281 282 282 284 284 285 285 285 286 286 286 286 286 285 285 285 284 285 285 285 285 285 285 285 285 284 284 284 284 284 284 284 284 285 285 286 286 286 286 287 287 287 287 288 288 287 287 287 286 286 286 286 286
286 285 284 284 283 283 282 282 282 282 282 282 282 282 282 282 282 281 281 281 280 280 280 280 280 280 280 281 281 281 282 282 281 281 282 283 284 285 285 286 286 286 286 285 286 285 285 285 285 285 284 285 285 285 285 285 285 285 285 284 284 284 284 284 285 285 286 286 286 286 286 286 286 286 287 287 287 287 286 286 286 286 286 286 286
285 284 284 283 283 282 282 282 281 282 281 281 281 280 281 281 281 281 281 281 281 280 280 280 280 281 281 281 281 281 282 282 282 282 282 283 284 284 285 285 286 286 286 286 285 285 285 285 285 285 284 284 285 285 285 285 285 285 285 285 285 285 285 285 286 286 286 286 286 286 286 286 286 286 286 286 287 287 287 287 287 287 286 286 286
284 283 283 283 282 282 282 282 282 281 281 281 281 280 280 281 281 281 281 281 280 280 280 280 281 281 281 281 281 281 282 282 282 282 282 282 283 283 284 284 285 286 286 286 285 285 285 285 285 285 285 285 285 284 284 285 285 285 285 285 285 285 285 286 286 286 286 286 286 286 286 286 286 286 286 286 286 286 286 286 286 286 286 286 286
283 283 282 282 282 282 282 282 282 281 281 281 281 281 281 281 281 281 281 281 281 280 280 280 280 280 280 281 281 281 281 282 282 282 282 282 282 283 283 283 284 285 286 285 285 285 285 285 285 285 285 285 285 285 284 284 285 285 285 285 285 285 285 286 286 286 286 286 286 286 286 286 286 286 286 286 286 286 286 286 286 286 286 286 286
282 282 282 282 282 282 282 282 282 282 282 282 282 281 281 281 281 281 281 281 281 281 280 280 280 280 280 280 281 281 281 281 281 282 282 282 282 282 283 283 284 285 286 285 285 285 285 285 285 285 285 285 285 285 285 284 284 284 285 285 285 285 285 285 286 286 286 287 287 287 287 286 286 286 286 286 286 286 286 286 286 286 286 286 286
282 282 282 282 282 282 283 283 282 282 282 282 282 281 281 281 281 281 280 280 280 280 280 280 280 280 280 280 280 280 280 280 280 281 281 281 282 282 282 283 283 284 285 286 286 285 285 285 285 285 285 285 285 285 285 285 284 284 284 285 284 285 285 285 285 286 287 287 286 287 287 286 286 286 286 286 286 286 286 286 286 286 286 285 285
282 282 282 282 282 282 282 282 282 282 282 282 281 281 281 281 280 280 280 280 279 279 279 279 279 279 279 279 279 279 279 280 280 280 281 281 281 281 282 282 283 283 284 285 286 285 285 285 285 285 285 285 285 285 285 285 285 284 284 284 284 285 285 285 286 285 286 286 287 287 286 286 286 286 286 286 286 286 286 286 286 286 286 285 285
Wind_Speed
8 7 5 6 4 5 5 5 6 5 5 7 8 8 7 7 8 7 6 6 6 7 7 7 6 6 6 6 6 6 6 6 5 6 5 5 4 4 4 3 3 2 2 4 4 5 5 5 4 3 3 3 3 3 4 5 4 4 3 3 3 3 4 5 7 10 10 5 6 6 6 7 8 7 8 9 9 8 6 7 7 6 6 6 5
10 8 9 11 13 11 7 7 6 5 6 7 8 7 7 7 7 7 8 7 8 8 8 7 6 7 6 6 6 6 6 6 5 6 6 5 4 3 3 2 2 2 2 3 3 3 4 5 5 5 4 3 3 3 3 4 4 4 4 4 3 3 2 5 6 7 13 9 6 6 7 5 8 5 7 10 10 8 7 7 6 5 6 6 5
9 10 9 6 5 4 4 6 6 7 8 7 8 8 7 7 7 9 8 8 6 8 8 8 7 6 6 6 5 5 5 5 5 6 5 5 3 1 1 1 1 1 2 3 3 3 4 4 5 5 4 4 4 4 4 4 3 4 5 4 4 4 4 4 6 8 10 12 7 8 6 5 6 8 8 7 8 6 8 8 6 5 5 5 5
7 8 9 10 11 11 12 11 10 10 10 10 9 8 8 8 8 8 8 8 8 6 8 8 8 7 6 5 5 5 5 4 5 5 5 3 2 1 1 0 1 1 2 3 4 4 4 5 5 5 5 5 4 4 4 4 4 4 5 4 5 5 5 4 6 7 8 11 10 7 8 8 6 8 7 6 8 10 6 7 6 6 6 4 4
6 9 10 12 12 13 11 9 12 12 12 10 11 10 10 9 8 9 9 8 7 8 6 7 7 7 7 6 6 5 5 5 5 4 3 3 3 2 1 1 2 2 3 3 3 4 4 4 5 4 5 6 5 4 3 5 5 5 6 5 5 5 4 4 6 6 8 10 11 8 7 9 8 9 6 7 7 7 6 6 6 5 5 5 4
6 8 9 10 11 13 12 9 11 13 13 12 12 11 11 10 10 9 10 11 9 8 9 6 7 7 7 6 6 6 5 5 4 3 2 1 1 1 2 2 3 3 4 4 5 5 5 5 5 5 5 5 6 6 6 8 7 7 8 8 8 6 6 6 5 6 8 10 10 12 6 8 9 8 7 6 7 7 7 7 5 5 5 6 6
5 6 6 8 9 11 12 13 13 12 12 12 10 10 10 11 11 11 9 11 11 9 8 8 5 7 7 7 7 6 5 3 2 1 1 1 2 2 3 4 4 4 4 5 5 6 6 6 6 6 6 5 6 6 6 7 6 7 7 8 9 9 9 8 8 7 8 9 9 9 9 7 7 10 7 7 7 7 7 9 8 4 3 4 6
5 6 6 7 8 10 11 10 9 8 5 3 2 1 2 7 9 10 10 11 11 11 11 9 7 7 7 7 6 5 5 4 2 1 2 3 3 4 4 4 5 5 5 6 6 6 7 7 7 7 7 7 6 6 6 6 5 7 6 6 7 8 8 8 7 8 7 8 9 9 8 8 6 7 7 6 8 7 4 4 7 7 5 2 4
6 5 6 8 9 9 8 7 7 7 8 9 11 11 10 7 8 10 10 10 8 10 10 10 10 8 6 7 7 6 6 4 3 2 0 2 2 4 4 4 5 5 5 6 6 6 7 7 7 7 8 10 12 11 10 8 6 6 6 5 6 7 7 7 8 7 7 8 9 8 9 8 7 7 7 6 6 7 4 3 6 6 4 5 5
9 7 6 8 7 7 8 8 9 9 9 11 12 11 10 10 10 10 9 9 9 9 9 9 9 9 8 7 7 6 5 4 3 3 1 0 2 3 3 4 5 5 6 6 6 7 7 7 7 12 13 14 14 14 14 13 13 10 8 6 6 7 7 7 8 8 9 10 11 9 10 10 8 7 8 7 7 8 8 6 8 8 5 6 6
8 7 9 7 6 5 6 8 8 9 8 8 9 12 12 10 9 9 8 8 9 8 8 9 7 7 8 8 7 6 5 4 4 1 2 2 1 3 3 5 5 5 6 6 7 6 6 7 7 8 10 11 11 13 14 15 15 15 15 15 12 9 7 8 8 7 9 10 10 11 11 13 12 8 8 8 8 8 8 7 8 7 8 7 8
7 8 7 7 6 6 7 7 7 7 8 10 10 9 9 9 7 7 8 9 8 8 8 8 8 7 7 7 7 6 5 5 5 3 4 4 3 3 4 4 5 5 6 7 6 6 7 6 6 6 6 8 9 9 11 14 15 15 16 16 16 17 15 11 9 7 7 10 10 11 12 12 12 9 8 7 9 8 8 8 8 8 8 8 6
8 9 8 7 7 6 6 8 8 9 11 12 10 10 10 12 13 11 10 10 10 11 10 10 9 8 9 9 7 6 5 6 6 6 6 5 5 4 4 4 5 6 6 7 7 6 6 7 7 6 6 11 12 10 9 10 12 15 16 17 18 17 16 16 15 11 7 9 10 13 11 11 13 12 7 7 6 11 8 8 8 8 8 9 8
8 9 9 8 6 5 6 7 9 9 8 6 7 7 7 7 9 9 9 8 9 10 11 10 9 9 8 8 8 6 5 7 9 7 6 6 6 4 4 5 5 6 7 7 6 7 7 7 7 8 7 8 8 9 9 9 9 10 10 9 9 12 14 16 15 17 14 10 10 12 10 10 13 11 9 7 9 12 11 11 8 10 10 10 8
8 8 8 8 6 5 6 7 6 6 6 7 6 7 8 9 7 6 7 8 9 10 10 9 8 8 8 7 8 6 5 8 9 7 6 6 6 3 4 4 5 6 7 7 7 7 8 7 8 9 8 8 7 10 10 10 9 9 10 10 9 10 11 10 11 9 9 9 10 11 11 11 12 13 12 9 10 10 10 12 11 9 7 7 7
8 8 8 8 7 6 7 6 7 7 8 10 11 12 12 12 12 11 10 9 8 8 6 8 9 8 7 8 7 7 6 8 8 7 6 6 5 3 4 5 5 6 7 7 7 6 6 7 8 8 9 10 12 14 13 12 12 12 12 12 12 12 11 10 13 13 13 11 10 11 10 11 12 12 13 12 9 9 9 8 6 5 6 8 8
7 7 8 8 8 6 6 7 8 9 9 10 11 12 13 11 9 7 9 8 9 9 9 7 7 8 7 6 7 6 6 7 7 6 5 6 3 4 4 5 5 6 7 7 7 6 6 7 8 10 10 10 11 13 13 14 13 12 13 13 11 11 10 8 11 14 15 17 18 19 19 17 17 18 19 20 15 10 11 11 12 7 8 9 9
7 7 8 8 8 6 6 7 8 9 10 11 10 8 8 10 11 9 11 10 9 8 7 6 4 5 6 6 7 7 6 6 7 6 6 6 5 5 5 5 6 7 7 6 6 6 8 15 14 12 10 10 11 13 15 15 15 14 15 16 17 15 12 9 8 9 13 17 18 18 19 18 18 19 19 20 20 14 10 13 8 6 12 10 10
8 8 9 8 7 7 7 8 9 9 10 11 11 12 11 11 10 9 9 9 9 8 7 8 6 4 6 7 7 6 5 5 6 7 7 7 6 4 5 5 6 7 7 6 6 6 7 9 15 14 13 13 15 16 17 14 14 14 15 16 18 18 15 11 12 11 10 11 12 13 14 16 15 14 14 19 20 17 15 13 8 10 13 11 11
8 8 9 8 7 7 8 9 9 10 10 9 8 10 10 9 9 8 7 7 7 6 5 6 6 8 7 4 5 5 5 5 5 7 7 8 9 6 5 5 7 7 6 6 6 5 6 7 10 13 15 15 15 16 16 16 14 15 14 15 16 19 13 14 14 13 15 14 14 11 12 12 14 14 13 12 12 14 16 13 10 11 12 12 12
8 9 9 7 7 8 8 10 11 10 12 12 9 8 9 11 9 9 8 6 7 6 6 7 8 6 5 5 4 5 4 5 6 8 9 9 10 8 5 6 7 6 6 6 6 9 9 8 8 11 14 15 15 16 16 16 16 15 16 16 16 17 17 16 17 18 17 17 18 18 16 14 14 14 13 13 12 10 11 13 13 11 12 12 13
8 9 8 8 8 8 8 9 11 11 11 12 13 12 10 11 10 10 8 8 8 8 7 6 6 5 4 4 4 6 5 6 6 8 10 11 11 10 6 6 6 7 7 7 10 9 9 9 8 11 14 16 16 16 18 18 19 16 17 19 22 21 17 17 16 14 15 15 14 15 14 14 14 14 14 13 13 12 11 10 11 11 10 11 13
9 8 8 8 8 7 7 9 8 6 5 8 13 12 10 10 9 9 9 8 8 7 6 5 4 5 3 4 4 6 6 6 9 9 10 11 12 9 9 8 9 7 7 10 10 10 8 9 13 17 16 17 18 19 20 22 20 17 21 22 22 23 20 14 14 15 16 16 16 16 15 14 14 13 12 12 11 11 12 13 13 12 12 11 12
8 8 8 7 7 7 8 9 10 10 9 4 2 7 8 7 7 7 8 8 7 6 5 4 3 3 5 5 5 6 6 5 6 9 9 12 10 10 10 11 10 8 8 11 10 8 11 13 14 18 20 21 22 22 21 21 17 22 23 24 24 22 15 14 13 15 15 15 15 16 16 14 14 14 13 12 11 10 10 11 12 13 12 10 10
7 7 7 7 7 8 7 7 8 11 11 10 9 7 7 6 6 4 7 6 6 6 5 4 5 5 4 5 6 6 6 4 6 8 10 10 10 10 10 11 12 13 12 9 9 11 15 20 21 21 21 21 23 23 21 20 22 22 23 23 23 14 13 13 14 14 14 14 15 16 15 14 15 14 12 11 10 9 10 9 9 9 8 8 8
7 8 7 8 10 11 12 11 9 8 6 8 9 9 10 7 7 4 5 6 6 6 6 5 5 5 5 5 5 6 6 6 7 7 6 6 6 9 11 11 13 14 14 13 17 19 20 19 20 20 18 17 15 13 12 13 17 20 21 21 13 12 12 11 12 12 14 15 14 14 14 12 12 12 11 10 10 11 10 10 10 11 10 9 10
8 7 9 10 11 13 15 12 10 9 7 4 4 6 7 7 7 6 5 6 5 5 5 5 4 4 5 5 5 5 6 6 7 7 6 6 6 6 7 9 11 12 10 10 12 12 13 14 13 16 17 20 20 19 19 17 15 13 10 10 10 10 11 11 12 12 12 12 13 13 12 10 9 9 10 10 11 11 10 10 10 10 9 10 11
9 10 12 12 11 13 13 15 14 9 7 7 6 5 5 7 8 7 7 6 6 6 5 4 5 5 4 4 4 5 6 6 6 6 6 6 7 7 8 9 9 9 10 10 10 12 12 12 13 9 9 10 10 8 8 9 10 10 10 10 10 10 12 16 16 12 12 12 12 10 9 8 9 10 10 10 10 10 10 10 10 10 9 9 10
10 13 13 12 12 11 10 8 8 8 7 5 4 5 9 7 6 5 4 6 7 7 6 6 5 5 4 3 3 5 5 6 6 7 9 9 9 9 8 8 9 9 10 14 13 9 8 9 9 9 8 9 9 9 9 9 9 9 11 10 9 9 9 8 10 11 11 10 11 11 10 9 10 9 10 10 10 10 9 10 10 10 9 10 11
12 13 12 12 12 11 10 9 8 9 9 8 7 3 5 2 6 8 4 6 5 5 7 3 3 4 3 3 3 1 3 6 10 13 13 13 13 13 13 13 13 12 14 17 12 8 9 11 11 10 10 10 11 11 10 9 9 9 8 10 10 9 9 10 10 11 10 11 11 11 11 9 9 9 10 10 10 10 10 11 10 10 9 10 10
11 11 11 10 11 11 9 9 9 8 8 8 7 8 6 2 3 6 6 6 6 5 1 4 4 4 1 1 1 3 4 8 10 11 13 13 13 13 13 14 14 15 16 12 9 9 10 10 10 9 10 10 10 10 10 10 9 10 10 9 8 9 10 10 10 9 10 10 10 10 9 9 10 9 9 9 9 9 9 9 10 10 10 9 9
13 12 12 9 10 9 9 9 8 7 6 7 8 8 8 7 4 7 7 5 5 5 2 2 4 5 4 3 0 5 6 9 11 12 12 12 12 13 14 15 15 15 15 13 9 10 9 10 10 10 10 10 10 10 10 10 10 10 10 10 9 9 9 9 9 9 9 9 9 9 9 9 9 9 9 8 7 8 9 9 8 8 9 10 10
12 10 10 11 10 9 9 9 8 7 7 7 7 7 7 7 6 3 3 8 9 10 10 9 10 9 8 5 3 0 3 6 9 10 11 12 13 14 15 14 14 14 14 8 8 9 9 8 9 10 10 10 10 10 10 10 10 10 9 10 10 10 9 11 11 9 9 9 9 9 9 9 9 8 8 8 8 7 6 7 7 8 8 8 8
12 10 9 9 9 8 8 8 8 7 6 7 7 7 7 6 6 6 5 3 3 6 10 12 9 7 7 6 5 5 5 7 8 10 11 12 13 14 14 10 12 11 9 8 9 10 10 9 10 10 10 10 10 10 10 10 10 10 10 10 10 10 10 10 9 9 8 9 9 9 9 8 8 8 8 8 8 8 7 7 7 7 8 7 7
11 12 12 8 8 8 8 7 7 7 6 7 6 7 6 5 5 6 5 4 4 4 1 4 5 5 3 3 6 7 8 9 9 9 10 11 12 14 11 7 10 10 10 8 9 9 10 10 10 10 10 11 10 10 10 11 10 10 10 10 10 10 9 8 8 8 7 8 8 8 8 9 9 8 8 8 8 9 9 8 7 7 7 7 7
10 9 9 10 8 7 7 7 7 7 7 6 6 6 5 6 6 5 5 5 6 3 2 1 1 4 3 4 8 8 9 9 9 9 8 10 11 11 9 11 10 10 9 8 8 10 10 9 10 10 10 10 10 9 10 10 10 10 10 9 9 9 9 8 8 7 7 7 8 9 9 8 9 8 8 8 9 9 7 8 7 7 8 7 7
9 8 7 7 7 7 6 6 6 6 6 6 6 6 5 5 5 5 5 5 3 3 3 1 2 2 2 4 6 7 8 7 9 7 9 9 10 7 8 9 10 10 9 9 9 9 10 10 9 10 10 10 10 10 10 10 10 10 10 10 9 9 8 7 8 7 6 6 7 8 8 9 8 8 8 8 8 7 7 7 7 7 7 7 7
8 7 6 6 6 7 6 6 5 6 6 6 6 6 6 5 5 6 6 4 4 5 4 3 4 3 3 4 3 3 7 6 10 10 10 10 10 10 9 8 8 8 9 9 9 9 9 10 10 9 10 10 10 10 10 10 10 9 9 9 9 8 11 10 9 7 7 6 6 6 7 8 8 8 7 8 7 7 7 7 7 6 6 8 8
5 7 10 9 7 7 6 6 6 6 5 6 6 6 6 6 4 4 5 5 5 4 4 3 3 2 1 2 4 5 5 7 8 8 8 8 8 8 9 9 9 8 9 9 10 10 10 10 10 10 9 10 10 9 10 10 9 9 9 9 9 8 8 7 7 6 5 5 6 6 6 7 7 7 8 7 7 7 7 7 6 7 7 7 6
7 5 6 9 7 6 6 6 5 6 6 6 4 4 4 4 4 5 6 6 6 5 4 4 3 2 2 2 3 5 5 4 4 7 7 8 8 9 9 9 8 8 8 9 9 9 11 11 10 10 10 10 10 10 9 10 9 9 9 8 9 9 8 7 6 6 5 4 4 5 5 6 6 6 7 7 7 6 7 7 6 7 7 7 7
6 6 6 6 7 7 6 6 6 5 4 6 5 6 4 5 6 5 5 5 5 5 4 3 4 3 4 6 6 5 3 2 3 5 6 7 8 9 9 9 8 8 8 8 9 9 10 10 10 10 10 9 10 10 10 9 9 9 9 9 8 8 8 7 7 6 6 5 4 2 3 4 5 6 6 5 6 7 6 7 7 7 8 9 10
7 7 7 6 7 7 7 6 5 6 7 7 7 5 5 6 5 4 5 5 5 5 5 4 4 4 6 10 8 8 4 4 2 5 6 7 7 8 8 8 7 7 7 7 8 9 10 9 10 10 10 10 10 10 9 10 10 9 9 9 8 8 8 7 7 7 6 4 3 2 1 2 4 5 6 6 6 6 7 7 8 8 8 9 10
8 8 7 7 7 7 7 5 6 7 7 7 6 5 6 6 5 5 5 6 6 6 5 4 4 4 5 7 7 7 5 5 4 5 4 6 7 8 8 8 7 7 8 8 8 8 9 10 10 10 10 11 10 9 9 9 9 9 8 9 9 8 8 7 7 7 6 5 4 4 3 2 4 4 6 6 7 7 7 8 8 8 9 10 11
8 8 8 8 7 7 6 7 8 7 7 7 7 7 6 6 5 6 6 6 6 6 5 4 4 5 5 6 6 7 6 6 6 6 6 6 7 8 8 8 8 8 8 8 8 8 8 9 10 10 10 9 10 10 9 9 9 8 8 9 9 8 8 7 7 7 6 5 4 4 4 4 4 4 5 5 7 8 8 9 9 9 9 9 10
8 8 8 8 7 8 7 7 7 7 7 7 7 6 6 6 6 6 6 6 6 6 5 5 5 5 5 5 6 6 6 6 6 6 6 6 7 7 8 8 8 7 8 10 9 9 9 10 10 10 11 10 10 10 9 9 9 8 7 7 8 7 7 7 6 6 5 5 4 4 4 4 5 5 5 5 6 8 8 8 9 10 10 10 10
8 8 8 7 7 7 7 7 7 7 7 6 7 7 6 6 7 7 7 6 6 5 5 6 6 6 5 5 5 6 6 6 6 6 6 5 6 7 7 8 8 7 8 10 9 9 8 9 9 10 11 10 11 10 9 9 9 9 9 7 7 6 6 6 6 6 6 5 4 4 4 5 6 5 6 6 6 7 8 8 9 9 10 10 10
8 8 8 7 7 7 7 7 7 7 8 7 7 6 6 6 6 6 7 7 5 5 5 5 6 6 6 6 6 6 6 6 7 7 6 7 7 7 7 7 7 7 9 9 9 9 10 10 10 10 10 9 10 11 10 9 9 8 8 7 8 8 7 6 6 6 6 6 5 5 5 6 6 6 8 8 8 8 9 8 9 10 10 11 11
8 8 8 7 7 7 7 7 8 8 7 7 7 7 7 6 6 6 6 6 6 5 5 5 5 5 6 6 6 6 6 6 6 6 6 6 7 7 7 8 8 7 9 9 10 9 9 8 10 10 11 10 11 9 9 10 9 8 8 8 8 9 12 11 7 7 6 6 6 6 6 7 7 7 7 8 8 8 10 9 9 9 10 10 10
8 8 8 8 8 8 7 7 7 7 7 7 7 7 7 7 7 6 6 6 6 6 6 5 5 5 5 6 6 6 6 7 7 7 6 6 7 7 7 7 8 7 7 9 9 9 9 9 10 10 10 9 9 10 9 11 11 9 9 8 12 17 16 16 10 8 10 8 7 7 8 8 9 9 9 9 9 9 10 10 10 10 10 10 10
9 9 8 8 8 8 7 7 8 8 7 7 7 7 7 7 7 6 6 6 6 6 6 6 5 6 6 6 6 6 7 7 7 7 7 7 7 7 7 7 8 8 7 8 8 8 9 9 10 10 10 10 10 9 9 9 10 10 8 10 17 17 17 16 17 15 10 7 8 7 8 9 10 9 8 9 9 10 11 10 10 10 10 11 11
9 9 9 8 8 7 7 8 8 8 8 7 7 7 7 7 7 7 6 6 6 6 6 6 6 6 6 6 6 6 7 7 7 7 7 7 7 7 7 7 8 8 8 7 7 6 7 8 9 9 10 10 10 10 9 10 10 11 15 19 18 17 17 15 12 15 16 11 8 8 9 10 10 10 9 9 9 10 11 11 11 10 10 10 10
Wind_Direction
186 191 159 184 222 241 232 236 228 219 202 194 191 195 185 179 177 172 148 168 155 156 156 155 152 151 152 157 150 144 131 134 142 123 105 99 100 104 98 95 68 38 4 331 330 332 332 330 302 273 266 276 285 296 293 294 295 286 281 282 285 296 298 293 285 287 290 260 275 294 308 314 302 289 296 298 298 292 275 269 275 260 259 249 242
186 177 184 192 201 216 208 196 213 215 212 205 201 192 184 180 169 151 167 168 162 159 155 151 149 150 149 146 140 134 137 138 147 113 105 97 86 103 94 85 86 10 49 316 313 307 313 312 305 296 274 256 258 271 278 280 281 283 281 274 271 270 268 298 291 291 290 299 284 292 306 283 290 302 302 305 304 305 304 296 282 260 263 262 238
180 179 189 184 185 207 230 231 216 204 203 209 206 195 186 171 166 163 164 161 164 157 153 150 149 144 139 144 134 132 131 127 119 106 108 113 114 127 139 129 122 338 357 307 296 301 302 286 282 276 265 276 265 255 243 253 254 267 273 267 268 263 254 254 279 285 289 292 305 297 290 306 304 309 308 303 296 289 294 291 290 289 264 259 258
182 181 178 184 198 214 210 191 192 206 207 201 199 194 182 175 169 165 161 155 152 151 145 145 142 140 136 132 128 128 128 126 110 109 126 137 151 190 217 165 158 237 277 300 299 301 298 296 282 277 270 266 260 246 247 243 244 246 249 253 254 259 251 241 243 277 291 293 298 302 311 307 299 295 301 295 301 306 291 290 285 273 282 273 261
187 188 189 194 201 212 216 198 196 197 205 202 197 184 178 170 168 161 152 153 147 140 140 140 138 139 142 144 141 139 143 134 124 122 138 161 173 187 205 213 236 265 266 270 285 288 287 288 292 301 305 301 298 277 268 272 283 283 287 263 251 252 246 243 259 258 279 287 294 295 301 294 294 290 289 300 308 305 293 271 276 277 275 273 277
211 202 202 199 205 211 209 200 203 203 201 199 194 185 173 168 165 163 158 151 150 149 147 153 148 148 142 146 144 144 141 136 141 159 170 122 129 206 234 247 268 277 282 279 276 270 274 273 281 287 295 301 303 307 308 304 303 296 297 298 297 289 279 273 243 263 275 283 288 296 295 298 300 289 291 291 304 303 301 291 276 266 272 281 263
233 228 220 214 207 209 208 208 207 206 204 202 189 178 174 169 162 162 163 151 149 148 150 147 150 142 147 139 142 148 145 118 83 58 26 15 309 276 312 317 305 295 278 277 272 269 269 271 271 271 270 271 282 287 294 294 294 296 300 300 299 297 295 292 288 279 277 281 280 277 290 284 287 298 302 310 298 283 288 296 297 265 253 276 290
279 246 228 223 217 212 211 212 210 207 192 137 105 178 196 175 166 156 151 153 154 153 152 148 149 143 148 146 138 120 104 96 97 70 7 326 321 328 327 317 305 298 293 284 281 277 274 272 267 263 260 258 262 270 268 279 281 283 284 288 289 289 287 287 285 283 278 276 273 284 278 288 282 274 293 296 292 284 253 261 284 297 300 250 235
316 269 248 229 222 212 204 200 197 185 167 163 170 179 184 184 169 162 162 157 152 148 143 139 137 132 124 123 119 119 122 124 119 145 228 322 360 319 308 297 289 284 281 274 272 270 271 269 269 262 263 266 266 268 269 268 277 278 272 272 278 279 282 283 283 281 279 275 279 274 282 282 280 287 288 287 279 283 305 312 292 286 290 295 274
323 307 261 244 235 216 201 193 192 191 184 184 187 175 174 175 170 165 157 149 143 140 138 139 137 137 130 124 122 117 112 129 132 117 141 197 261 269 281 280 281 284 287 289 281 273 269 269 268 270 272 273 272 270 269 268 263 260 270 267 268 270 270 276 276 279 281 281 280 283 280 279 283 277 278 278 290 298 296 293 288 295 304 277 277
315 299 287 268 245 215 202 202 192 193 188 182 181 184 176 170 165 149 141 139 136 134 127 125 126 132 131 131 125 125 137 144 135 177 250 254 214 247 258 281 281 279 278 279 283 282 279 271 272 273 274 275 274 270 268 265 262 261 260 259 258 259 272 266 263 267 275 276 278 277 275 280 279 274 274 285 281 281 283 292 289 291 283 289 287
306 301 282 274 255 213 200 191 186 178 166 183 185 171 147 127 129 140 139 129 126 120 121 128 130 128 126 127 133 142 144 157 168 208 243 260 261 249 250 259 266 268 270 272 274 281 283 284 280 278 273 271 270 269 264 261 260 259 258 257 256 252 246 249 263 264 258 271 272 267 273 271 282 281 283 282 281 284 285 292 289 282 279 267 260
307 301 295 275 250 218 195 188 185 182 188 189 179 168 164 159 156 150 150 144 136 135 137 134 138 140 140 143 145 151 149 174 190 207 233 251 263 255 247 248 259 267 274 272 277 282 285 288 288 279 278 275 277 276 274 273 265 263 262 261 258 252 248 243 241 243 256 258 264 267 259 272 273 272 268 274 275 279 278 273 274 275 271 273 267
304 299 297 282 254 222 201 191 191 193 189 169 158 159 161 154 139 138 135 139 137 133 136 141 145 151 156 150 150 153 163 191 197 209 224 244 257 256 249 258 263 265 272 275 281 286 287 289 290 288 284 281 276 277 276 273 274 272 268 260 257 253 247 241 238 242 242 248 254 261 266 263 269 277 275 270 273 274 277 274 275 276 269 265 266
295 293 290 280 259 224 203 197 187 167 152 139 127 122 122 114 112 115 129 137 139 142 144 145 156 160 158 151 149 164 185 197 195 206 224 239 259 267 258 258 263 268 268 270 273 277 282 283 282 285 287 286 279 280 281 278 275 273 268 263 256 253 252 249 248 245 246 242 248 255 263 264 269 271 270 261 256 261 263 268 268 266 279 284 271
284 288 282 271 250 222 202 184 174 163 154 150 150 150 150 151 154 157 147 145 140 134 136 145 156 162 163 157 155 172 203 205 202 209 225 245 263 264 261 261 263 263 268 268 271 270 273 275 280 279 283 286 287 283 281 284 283 279 275 271 268 262 255 249 247 245 248 251 250 255 257 259 264 274 279 282 287 289 296 298 290 263 273 278 272
276 277 274 262 246 219 196 179 169 166 161 163 165 161 154 148 140 136 135 146 144 149 157 165 158 156 168 171 166 181 197 211 203 214 231 250 261 256 255 253 253 260 264 266 267 269 271 272 273 283 283 283 285 289 294 297 292 287 282 279 273 269 263 259 247 246 247 251 254 256 259 260 261 264 267 269 266 264 272 273 264 278 281 268 267
268 269 268 259 243 218 194 179 168 164 168 163 157 159 147 137 142 148 145 151 153 151 145 131 142 156 169 187 188 182 206 217 204 214 229 243 238 242 251 251 260 263 267 261 260 259 260 270 277 283 284 281 286 290 294 297 291 290 289 287 284 279 274 270 266 257 251 254 255 255 255 257 257 259 260 262 262 254 248 252 254 266 261 258 268
263 263 265 257 237 211 191 179 170 167 158 160 158 155 155 147 143 146 146 145 147 141 136 140 158 194 212 202 197 190 204 223 215 218 230 244 247 243 247 249 268 267 271 276 255 255 256 260 272 274 273 276 277 276 274 274 281 283 285 284 281 278 278 281 269 269 265 261 258 257 256 254 258 258 257 252 250 245 244 248 246 239 252 254 257
259 260 263 256 231 206 191 177 170 164 152 148 150 147 138 129 134 137 131 124 133 137 132 135 166 210 210 202 212 201 206 239 232 227 231 246 250 247 241 254 267 281 281 279 287 261 256 261 268 263 263 266 268 268 268 265 270 279 280 276 277 277 283 280 277 275 274 270 269 261 261 263 264 263 264 260 251 246 244 238 228 231 242 247 246
257 258 260 249 224 204 188 177 168 164 158 155 147 135 132 136 140 134 132 124 125 130 154 175 194 207 205 215 217 235 220 234 249 237 242 246 254 253 244 247 263 272 284 282 279 291 288 275 276 272 268 272 274 274 273 271 268 272 274 273 271 277 281 279 280 274 272 272 270 270 266 266 263 261 257 254 252 246 242 236 232 225 231 237 240
255 257 253 236 217 199 182 177 165 156 155 149 145 147 148 143 148 147 147 148 152 165 170 176 192 211 221 223 231 246 257 248 260 263 254 254 257 262 265 265 271 291 290 291 294 288 286 289 286 281 282 284 284 282 278 276 272 271 271 269 271 271 271 273 275 276 273 273 271 267 264 261 260 255 252 249 247 247 245 239 233 231 231 235 239
251 251 243 223 207 187 172 149 128 119 138 159 150 146 147 148 144 137 142 147 153 158 169 171 185 212 242 256 252 260 259 255 249 256 261 261 265 274 273 277 280 280 286 296 295 291 284 282 289 291 289 288 286 283 280 277 275 272 269 266 265 264 264 263 263 266 267 266 264 263 261 260 258 255 249 247 243 238 245 245 243 235 232 231 233
244 239 227 209 182 159 147 140 133 127 110 72 46 114 123 115 123 139 148 149 144 141 147 148 156 204 236 261 266 256 254 253 258 249 259 264 271 277 282 285 289 286 289 294 296 290 295 297 297 295 291 288 285 282 280 277 273 271 268 267 265 263 260 258 254 256 257 257 256 258 257 254 254 253 250 250 247 233 234 236 237 233 229 224 229
239 226 206 187 151 132 117 124 140 134 134 137 127 112 96 118 113 127 124 109 124 142 154 151 182 210 224 246 268 283 284 275 275 269 267 273 275 281 290 298 302 303 302 293 293 296 294 292 292 290 288 285 283 281 280 275 270 268 266 265 265 260 255 248 247 247 247 247 249 253 253 249 248 249 247 245 247 245 240 235 230 231 231 238 245
227 204 183 155 141 132 122 114 103 94 101 124 135 141 144 144 118 112 115 135 148 146 149 166 195 203 227 254 266 277 295 301 293 290 285 285 288 296 304 308 307 305 299 297 295 291 290 288 287 286 285 284 286 286 286 283 278 275 272 269 264 258 251 247 242 239 241 244 244 244 244 244 243 241 237 237 239 244 240 235 230 233 237 244 250
203 178 150 142 140 138 130 131 132 131 131 138 116 130 121 117 129 142 144 140 137 133 145 168 188 205 239 258 270 287 290 291 289 291 293 300 301 302 309 313 314 313 309 305 301 300 297 295 295 290 285 283 280 278 278 278 278 275 270 265 259 254 249 242 241 240 241 241 243 244 245 239 234 232 235 230 235 236 231 230 227 229 222 233 238
184 156 143 141 144 141 134 136 134 140 142 142 130 106 127 141 141 157 154 149 140 157 166 183 197 213 224 246 271 289 292 289 294 308 316 319 318 321 323 322 320 314 307 305 302 303 303 296 290 285 285 284 281 278 273 270 269 271 270 265 260 254 252 248 246 243 242 243 245 245 239 227 228 230 230 231 234 233 223 222 221 224 217 219 226
160 145 142 139 134 130 129 114 114 119 108 106 99 154 157 159 151 150 187 156 153 162 182 190 202 204 190 213 243 291 301 315 312 324 324 327 327 327 327 324 319 313 303 303 306 302 295 294 296 298 296 293 293 288 284 279 275 271 271 273 271 268 263 251 245 242 241 238 238 236 239 232 235 227 229 230 228 226 217 221 216 217 215 215 228
146 146 142 138 136 136 139 139 151 148 150 146 129 64 0 113 142 142 179 211 183 150 147 164 176 169 178 224 172 256 301 293 307 325 331 332 330 328 321 315 314 313 315 316 317 308 306 308 310 305 301 300 300 298 294 287 285 284 279 278 277 274 267 260 251 248 242 236 237 235 234 230 232 224 222 227 227 225 217 213 216 212 215 218 225
136 136 131 131 141 143 142 145 154 148 146 140 132 132 123 67 68 92 106 140 166 178 96 111 139 126 125 360 22 204 270 306 328 334 335 334 330 325 323 324 324 324 323 324 319 311 313 310 307 302 297 295 293 294 292 293 291 289 287 283 276 273 270 263 257 248 242 237 235 233 233 228 229 223 223 221 223 220 216 209 213 209 215 216 222
134 134 132 130 128 126 135 132 130 129 128 124 129 134 135 127 102 68 72 103 118 123 96 43 75 104 128 150 91 347 348 351 340 336 336 332 331 329 331 331 328 324 322 318 314 317 312 307 304 302 302 299 295 294 294 293 292 289 289 289 283 279 275 271 260 248 242 236 232 229 227 225 224 223 220 220 217 215 206 203 204 212 218 220 218
114 115 119 118 117 116 114 118 127 131 132 126 130 136 136 135 138 147 47 50 70 77 79 83 85 90 99 101 127 226 310 322 330 337 339 340 339 339 334 330 328 324 322 326 327 315 315 309 305 305 303 303 300 299 295 290 289 288 285 284 284 283 278 275 271 255 241 231 228 228 224 223 221 220 219 215 213 218 206 203 205 210 214 215 214
102 104 97 100 106 127 137 139 144 145 140 133 137 137 138 143 154 146 124 87 47 46 54 57 58 73 82 79 56 23 359 352 349 350 350 347 343 341 336 327 318 320 331 330 330 323 320 314 312 307 305 301 299 299 298 295 291 289 286 281 279 279 278 277 274 260 242 230 226 228 222 221 215 215 216 215 212 217 220 217 210 209 213 213 211
122 133 147 156 158 152 145 144 138 128 123 126 129 128 144 148 134 137 142 137 133 125 75 357 12 45 55 43 16 13 7 358 356 352 353 349 347 340 329 334 345 346 343 340 330 323 318 315 312 309 307 308 306 303 300 299 297 294 290 289 287 284 282 277 271 264 246 234 226 224 220 217 215 211 211 209 209 210 214 214 212 207 210 208 205
155 158 164 161 145 141 139 134 134 135 138 144 140 129 122 121 120 141 128 118 125 114 55 348 283 301 347 21 17 5 1 356 356 351 359 356 350 341 356 355 346 339 333 327 325 320 316 311 311 307 305 302 302 301 300 300 298 295 292 289 286 283 281 277 275 268 255 241 230 223 219 217 212 210 208 210 210 210 208 209 208 208 207 202 190
146 143 145 139 134 134 129 127 129 136 130 119 110 103 106 116 130 122 113 114 102 93 105 41 23 5 356 19 2 340 349 356 355 359 7 1 352 355 359 352 342 331 327 325 320 319 316 316 312 309 308 307 307 306 307 304 302 299 295 291 287 283 277 280 279 277 268 256 239 226 218 216 209 205 201 206 206 206 204 200 205 202 201 181 165
131 134 135 132 127 123 119 124 118 108 101 103 108 116 127 141 134 120 118 110 112 117 113 105 106 102 56 328 335 353 329 344 357 11 9 6 2 358 353 343 338 330 327 323 323 319 316 316 315 313 311 310 309 312 313 310 309 306 302 299 296 288 289 286 281 276 266 256 248 232 217 212 207 201 197 202 200 195 197 196 194 187 173 160 158
92 109 119 126 123 128 132 121 110 110 107 105 124 130 134 129 111 107 105 109 116 120 120 113 100 88 18 294 349 334 354 11 14 0 351 351 350 351 348 345 338 332 327 326 324 324 323 321 321 318 315 317 316 315 317 314 311 309 308 304 302 304 305 308 300 297 285 266 253 236 221 209 199 197 193 196 193 191 187 181 171 158 154 154 158
110 101 104 109 104 95 97 99 101 96 112 118 104 99 97 101 131 128 130 121 123 133 132 115 99 74 323 4 5 0 13 3 1 353 343 346 345 346 347 341 335 326 326 325 327 325 324 324 322 323 321 320 321 320 319 318 316 312 310 312 314 314 313 314 311 304 302 294 270 243 218 202 186 181 181 186 181 171 164 159 157 150 145 136 122
89 83 74 71 91 93 79 79 75 86 88 78 82 82 90 102 97 97 104 111 123 121 108 89 62 10 356 357 5 19 24 339 330 350 345 343 344 343 341 337 326 324 325 328 328 326 325 322 324 322 322 322 323 324 324 322 322 319 319 320 320 318 317 318 322 320 321 319 310 280 211 178 166 163 168 162 152 152 150 144 141 141 135 130 127
92 87 81 77 81 85 87 76 88 79 73 71 64 73 82 83 83 90 93 94 91 85 77 48 24 7 6 8 7 12 25 350 315 355 346 343 343 342 336 329 322 325 326 328 328 323 323 322 324 325 327 327 326 326 325 326 327 326 325 326 325 325 326 325 330 331 331 315 326 346 27 134 147 145 139 137 138 137 141 143 138 133 131 131 132
87 85 87 85 79 80 89 93 82 75 69 70 71 66 72 81 83 87 83 75 69 63 61 36 4 1 8 359 7 17 28 14 359 359 343 342 342 340 335 327 327 331 330 328 328 326 324 325 328 329 332 330 331 327 325 325 324 324 326 327 329 331 330 329 337 337 336 336 352 15 37 78 111 124 131 136 137 137 135 130 126 127 130 131 132
92 91 86 84 88 86 75 81 77 77 81 81 76 69 67 77 75 72 73 69 61 57 54 36 18 9 5 1 11 23 20 5 5 0 351 339 344 341 334 328 332 338 334 332 334 335 330 329 330 332 333 335 335 334 331 330 329 323 327 329 330 331 334 337 336 336 339 348 7 20 42 54 74 96 110 120 126 127 124 123 125 126 129 130 130
88 88 88 85 75 81 77 71 77 81 81 77 70 64 57 61 66 64 64 63 59 53 45 36 25 22 14 10 11 9 6 354 349 353 352 345 339 338 335 329 332 336 338 343 341 339 337 336 336 335 337 340 341 338 334 331 335 332 329 331 330 331 333 333 329 333 339 3 15 31 43 59 68 75 84 95 110 121 120 125 125 125 124 127 128
80 81 83 87 84 78 77 73 70 72 69 69 71 63 58 55 57 57 56 55 50 46 42 34 29 25 17 10 3 2 358 350 346 347 350 347 345 338 334 330 328 334 344 346 341 338 339 338 338 338 339 339 342 342 339 338 339 340 341 339 337 328 330 338 344 358 3 12 25 37 54 62 66 68 80 93 95 102 109 113 118 121 122 120 118
71 73 71 73 75 78 72 74 72 69 69 66 64 62 56 52 52 52 53 47 43 37 32 24 18 15 11 7 1 354 349 351 348 349 351 348 342 337 333 331 325 332 348 349 347 347 346 345 344 341 340 342 343 347 346 344 343 343 347 346 348 352 348 350 2 11 12 18 29 52 55 68 71 78 79 87 92 97 102 107 113 114 115 117 116
62 64 64 64 66 69 68 69 71 69 67 65 64 62 58 53 50 46 40 36 35 33 27 20 14 6 360 358 353 348 344 341 340 346 347 349 346 339 334 332 330 331 343 350 353 351 351 347 346 346 346 347 350 347 349 351 347 345 350 354 360 6 12 12 14 17 19 30 39 51 63 69 73 73 79 85 94 100 102 101 101 102 107 109 112
58 60 63 60 61 59 61 63 64 64 65 65 62 58 56 52 49 43 38 31 30 25 22 14 9 1 356 352 348 346 341 338 337 340 344 345 347 342 337 330 327 331 344 355 353 352 351 350 351 352 352 350 351 354 353 356 355 348 355 359 10 14 19 25 25 23 28 36 41 54 65 70 71 75 77 83 85 91 94 96 100 101 100 102 105
56 57 63 64 64 65 64 66 66 65 62 60 59 58 53 52 47 41 36 30 25 22 16 13 5 360 353 349 349 345 343 341 338 336 339 339 342 340 338 331 333 339 340 345 350 354 352 352 352 356 354 355 356 358 360 360 2 360 345 9 18 21 22 27 31 30 34 41 41 52 61 72 71 72 73 80 86 90 92 95 97 100 102 105 104
59 61 63 66 68 67 65 67 65 64 60 58 56 54 52 49 48 42 36 32 26 21 17 11 5 0 355 352 345 344 341 340 336 335 336 338 338 337 338 336 335 338 336 335 338 342 346 350 354 356 359 360 2 2 4 6 9 9 13 14 21 26 28 31 35 34 38 42 46 48 57 61 72 73 74 76 83 84 91 92 93 93 96 96 100